Regional Weather Roundup
Issued by NWS

Home | Current Version | Previous Version | Text Only | Print | Product List | Glossary On
Versions: 1 2 3 4 5 6 7 8 9 10 11 12 13 14 15 16 17 18 19 20 21 22 23 24 25 26 27 28 29 30 31 32 33 34 35 36 37 38 39 40 41 42 43 44 45 46 47 48 49 50
000
ASUS44 KBMX 062210
RWRAL

ALABAMA REGIONAL WEATHER ROUNDUP
NATIONAL WEATHER SERVICE BIRMINGHAM AL
500 PM CDT MON JUL 06 2015

NOTE: "FAIR" INDICATES FEW OR NO CLOUDS BELOW 12,000 FEET
WITH NO SIGNIFICANT WEATHER AND/OR OBSTRUCTIONS TO VISIBILITY.

THE REMARK "TC" DENOTES TEMPERATURE IN DEGREES CELSIUS.

ALZ001>011-014-016>018-020-062300-
NORTH ALABAMA

CITY           SKY/WX    TMP DP  RH WIND       PRES   REMARKS
MUSCLE SHOALS  SUNNY     88  69  53 W7        30.09F HX  92
HUNTSVILLE     MOSUNNY   86  70  58 SW8       30.09F HX  90
DECATUR        PTSUNNY   84  71  65 S7        30.10F
HALEYVILLE     FAIR      84  73  69 SW6       30.14F HX  90
GADSDEN        PTSUNNY   91  64  40 SW9       30.10F HX  93
$$

ALZ012-013-022-023-030>036-040>044-062300-
WEST CENTRAL ALABAMA

CITY           SKY/WX    TMP DP  RH WIND       PRES   REMARKS
TUSCALOOSA     SUNNY     87  71  58 W6        30.10F HX  93
$$

ALZ015-024>027-033>036-040>044-062300-
CENTRAL ALABAMA

CITY           SKY/WX    TMP DP  RH WIND       PRES   REMARKS
BIRMINGHAM     MOSUNNY   84  69  60 SW8       30.14F
MONTGOMERY     SUNNY     88  70  55 NW7       30.12F HX  93
SHELBY CO ARPT MOSUNNY   83  70  64 VRB7      30.13F
MAXWELL AFB    MOSUNNY   87  71  60 SW6       30.11F HX  92
GREENVILLE     FAIR      88  69  53 VRB5      30.12F HX  92
$$

ALZ019-021-028-029-037-038-045>048-062300-
EAST CENTRAL ALABAMA

CITY           SKY/WX    TMP DP  RH WIND       PRES   REMARKS
ANNISTON       SUNNY     85  68  56 SW8       30.12F
ALEXANDER CITY SUNNY     83  67  57 W6        30.14F
AUBURN         MOSUNNY   82  66  57 W9        30.15F
$$

ALZ051>064-062300-
SOUTHWEST ALABAMA

CITY           SKY/WX    TMP DP  RH WIND       PRES   REMARKS
MOBILE         CLOUDY    87  71  58 SW5       30.13F HX  93
BROOKLEY FIELD FAIR      87  73  62 S10       30.13F HX  94
EVERGREEN      MOSUNNY   88  72  58 VRB5      30.12F HX  94
$$

ALZ049-050-065>069-062300-
SOUTHEAST ALABAMA

CITY           SKY/WX    TMP DP  RH WIND       PRES   REMARKS
DOTHAN         MOSUNNY   88  69  53 N8        30.15F HX  92
OZARK          MOSUNNY   88  68  52 W6        30.11F HX  91
TROY           SUNNY     88  69  53 NW7       30.13F HX  92
EUFAULA        FAIR      88  71  57 VRB3      30.11F HX  94
$$



USA.gov is the U.S. government's official web portal to all federal, state and local government web resources and services.